DECAYED

DMSP 5D-2 F13 DEB, 42270 (Decayed)

Orbit data source: Space-Track

DMSP 5D-2 F13 DEB, 42270 was space debris in SSO originally from a launch on Fri, 24 Mar 1995 UTC launched from the Air Force Western Test Range (AFWTR). Debris objects in space refer to the collection of defunct objects orbiting the Earth. Examples of debris include non-operational satellites, rocket bodies, and fragments generated from explosions, collisions, or faulty payload assembly.

Not visible in the next 10 days
Identifier
42270, 1995-015GL
Orbit
Decayed
Country
Flag of USUS
Related business
Manufacturer
Unknown
Mission
Decayed spacecraft
Bus & Motor
Unknown
Mass
Unknown
Launch date (UTC)
1995-03-24 (31 years ago)
Launch vehicle
Unknown
Launch site
Air Force Western Test Range (AFWTR)
Object type
Payload
Rocket body
Debris
Shape & HBR
Unknown shape, 0.1 m
Radar Cross Section
Small (<0.1 m²)

Expand to show TLE details & history
Last TLE update: 1 year ago

TLE from 1 year ago
0 DMSP 5D-2 F13 DEB
1 42270U 95015GL  25201.12204739  .00609169  00000-0  14216-1 0  9999
2 42270  98.7857 260.0175 0015384 240.1453 119.8260 15.39704618525454
Epoch: 2025-07-20T02:55Z
TLE epoch observation values (Epoch: 2025-07-20T02:55:44.894Z)
Latitude
-0.00003°
Longitude
-82.06889°
Altitude
455.291 km
Speed
7.636 km/s
True Right ascension
17h 20m 04s
True Declination
0° 00' 00"
Sunlit
Object was in full shadow at epoch
Visualization orbit readout
Latitude
Unknown
Longitude
Unknown
Altitude
Unknown
Speed
Unknown
Apparent Right ascension
Unknown
Apparent Declination
Unknown
Sunlit
N/A
Visualization observer readout
Local Sidereal Time
12:25:19
Azimuth
Unknown
Elevation
Unknown
Doppler factor
Unknown
Orbital elements
Apogee altitude
454.482 km
Perigee altitude
433.491 km
Semi-major axis
6,822.124 km
Eccentricity
0.00154
Inclination
98.7857°
RAAN
260.0175°
Arg. of periapsis
240.1453°
True anomaly
119.97879°
Mean anomaly
119.826°
Eccentric anomaly
119.90241°
Mean motion
3.8518 °/min
Orbital period
93.46 mins
BSTAR
0.014216

Documentation

Showing up to 5 results
|